Billings, MT (59101)

2:57 PM MDT on March 28, 2017 (GMT -0600)
Yellowstone RV Campground | | Change Station

Elev 3120 ft 45.76 °N, 108.48 °W | Updated 23 seconds ago

Partly Cloudy
Partly Cloudy
55.6 °F
Feels Like 55.6 °F
N
1.3
Wind Variable Wind from North
Gusts 2.5 mph

Today
High -- | Low -- °F
--% Chance of Precip.
Yesterday
High -- | Low -- °F
Precip. -- in
Pressure 30.09 in
Visibility 10.0 miles
Clouds Scattered Clouds 7000 ft
Scattered Clouds 16000 ft
Dew Point 27 °F
Humidity 33%
Rainfall 0.76 in
Snow Depth Not available.
7:01 AM 7:37 PM
New Moon, 1% visible
METAR KBIL 282053Z 02005KT 10SM SCT070 SCT160 13/M04 A3008 RMK AO2 SLP188 T01281044 58017
Pressure 30.09 in
Visibility 10.0 miles
Clouds Scattered Clouds 7000 ft
Scattered Clouds 16000 ft
Dew Point 27 °F
Humidity 33%
Rainfall 0.76 in
Snow Depth Not available.
7:01 AM 7:37 PM
New Moon, 1% visible
METAR KBIL 282053Z 02005KT 10SM SCT070 SCT160 13/M04 A3008 RMK AO2 SLP188 T01281044 58017

Get Severe Weather Alerts

Thanks for signing up!

Be on the lookout for a verification email in your inbox.

You'll start receiving the daily forecast at 8 AM.

×

10-Day Weather Forecast

Almanac

Astronomy

Mar. 28, 2017 Rise Set
Actual Time
Civil Twilight
Nautical Twilight
Astronomical Twilight
Moon
Length of Visible Light
Length of Day
Tomorrow will be .
, % of the Moon is Illuminated

Today's Extremes

State Highs State Lows

Community

WunderPhotos

Upload Photos

1,962,540 photos uploaded!

WunderBlog® & News

Nearby

Air Quality

  Air Quality AQ Index Pollutant
Not available.

Snow Depth

Station Depth Elevation

Earthquake Activity

City Distance Mag. Time & Date
Minimum magnitude displayed is 2.5.

Earthquake Activity

City Distance Mag. Time & Date
Minimum magnitude displayed is 2.5.

Coastal Water Temperatures

Place Temperature

Stations

Nearby Weather Stations

Station Location Temp. Windchill Dew Point Humidity Wind Precip. Elev Updated Type
                   

Watches & Warnings

There are currently no watches in effect.